TimeEDT,TemperatureF,Dew PointF,Humidity,Sea Level PressureIn,VisibilityMPH,Wind Direction,Wind SpeedMPH,Gust SpeedMPH,PrecipitationIn,Events,Conditions,WindDirDegrees,DateUTC
12:56 AM,72.0,59.0,64,29.91,10.0,North,13.8,-,N/A,,Overcast,10,2013-07-25 04:56:00
1:56 AM,71.1,59.0,66,29.91,10.0,NNE,13.8,20.7,N/A,,Overcast,20,2013-07-25 05:56:00
2:56 AM,69.1,59.0,70,29.92,10.0,NNE,12.7,20.7,0.00,,Overcast,20,2013-07-25 06:56:00
3:56 AM,68.0,57.9,70,29.93,10.0,NNE,11.5,-,N/A,,Overcast,20,2013-07-25 07:56:00
4:56 AM,66.9,55.0,66,29.95,10.0,NNE,9.2,18.4,N/A,,Overcast,20,2013-07-25 08:56:00
5:56 AM,64.0,53.1,67,29.97,10.0,North,10.4,-,0.00,,Overcast,10,2013-07-25 09:56:00
6:12 AM,64.4,53.6,68,29.98,10.0,NNE,11.5,-,N/A,,Overcast,20,2013-07-25 10:12:00
6:51 AM,62.6,53.6,72,29.98,10.0,NNE,11.5,-,N/A,,Overcast,20,2013-07-25 10:51:00
7:56 AM,63.0,53.1,70,30.00,10.0,NNE,10.4,-,N/A,,Overcast,30,2013-07-25 11:56:00
8:10 AM,62.6,51.8,68,30.01,10.0,NE,10.4,-,N/A,,Overcast,40,2013-07-25 12:10:00
8:56 AM,64.0,54.0,70,30.01,10.0,NNE,10.4,-,N/A,,Mostly Cloudy,20,2013-07-25 12:56:00
9:56 AM,64.0,55.0,73,30.02,10.0,NNE,8.1,-,N/A,,Overcast,20,2013-07-25 13:56:00
10:26 AM,62.6,55.4,77,30.04,10.0,North,8.1,-,N/A,,Overcast,360,2013-07-25 14:26:00
10:56 AM,63.0,55.9,78,30.03,10.0,North,10.4,-,N/A,,Overcast,350,2013-07-25 14:56:00
11:56 AM,64.0,57.0,78,30.04,9.0,NNE,10.4,-,N/A,,Overcast,20,2013-07-25 15:56:00
12:56 PM,63.0,57.0,81,30.04,9.0,North,12.7,-,N/A,,Overcast,360,2013-07-25 16:56:00
1:56 PM,63.0,57.9,84,30.04,9.0,North,11.5,-,N/A,,Overcast,10,2013-07-25 17:56:00
2:56 PM,63.0,57.9,84,30.04,9.0,North,10.4,-,N/A,,Overcast,10,2013-07-25 18:56:00
3:56 PM,64.0,59.0,84,30.03,9.0,NNE,11.5,-,N/A,,Overcast,20,2013-07-25 19:56:00
4:56 PM,62.1,59.0,90,30.04,8.0,North,10.4,-,0.00,Rain,Light Rain,360,2013-07-25 20:56:00
5:03 PM,62.6,59.0,88,30.04,7.0,North,13.8,-,0.00,Rain,Light Rain,360,2013-07-25 21:03:00
5:56 PM,62.1,59.0,90,30.04,6.0,North,8.1,-,0.00,Rain,Light Rain,10,2013-07-25 21:56:00
6:07 PM,62.6,60.8,94,30.04,8.0,North,9.2,-,0.00,Rain,Light Rain,10,2013-07-25 22:07:00
6:56 PM,62.1,59.0,90,30.04,9.0,NNE,12.7,-,0.00,,Overcast,20,2013-07-25 22:56:00
7:56 PM,62.1,59.0,90,30.04,8.0,NNE,9.2,-,0.00,Rain,Light Rain,20,2013-07-25 23:56:00
8:27 PM,62.6,59.0,88,30.03,10.0,North,9.2,-,0.00,Rain,Light Rain,10,2013-07-26 00:27:00
8:56 PM,61.0,59.0,93,30.04,9.0,North,8.1,-,0.00,Rain,Light Rain,10,2013-07-26 00:56:00
9:56 PM,61.0,59.0,93,30.03,10.0,NNE,13.8,18.4,0.00,,Overcast,20,2013-07-26 01:56:00
10:56 PM,61.0,57.9,90,30.01,10.0,NNE,12.7,-,N/A,,Mostly Cloudy,20,2013-07-26 02:56:00
11:56 PM,62.1,59.0,90,30.01,10.0,NNE,11.5,-,0.00,Rain,Light Rain,20,2013-07-26 03:56:00